User: anonymous   Login
Location: Sewell
(39.7660°N, 75.1450°W)
Time: 05:07:13
(UTC-04:00)
Language:

ISS - Orbit

View from above orbital plane
View from above orbital plane
View from above satellite
View from above satellite

Ground track
Ground track

The orbit data is extracted from the following two-line orbital elements,

1 25544U 98067A   16145.69686492  .00003239  00000-0  55059-4 0  9992
2 25544  51.6424 175.2139 0001726 113.6054 353.3802 15.54685316  1333
Epoch (UTC): 24 May 2016 16:43:29
Eccentricity: 0.0001726
inclination: 51.6424°
perigee height: 402 km
apogee height: 404 km
right ascension of ascending node: 175.2139°
argument of perigee: 113.6054°
revolutions per day: 15.54685316
mean anomaly at epoch: 353.3802°
orbit number at epoch: 133

The dashed part of the orbit path shows where the satellite is in the earth's shadow,  

DLR